User: anonymous   Login
Location: Albuquerque Trailhead
(34.7934°N, 106.3736°W)
Time: 01:12:04
(UTC+00:00)
Language:

ARIANE 5 R/B - Orbit

View from above orbital plane
View from above orbital plane
View from above satellite
View from above satellite

Ground track
Ground track

The orbit data is extracted from the following two-line orbital elements,

1 27387U 02009B   21269.62233054  .00000005  00000-0  17066-4 0  9992
2 27387  98.6718 230.4401 0032355 177.8948 182.2379 14.36026279 25777
Epoch (UTC): 26 September 2021 14:56:09
Eccentricity: 0.0032355
inclination: 98.6718°
perigee height: 748 km
apogee height: 795 km
right ascension of ascending node: 230.4401°
argument of perigee: 177.8948°
revolutions per day: 14.36026279
mean anomaly at epoch: 182.2379°
orbit number at epoch: 2577

The dashed part of the orbit path shows where the satellite is in the earth's shadow,  

DLR